STARLINK-35066 (65386 NORAD) Tracking and Keplerian Element Data

This shows tracking and keplerian element data for the satellite.

Feedback or suggestion? Click here.




ElementValue
Catalog65386
NameSTARLINK-35066
Epoch Orbit1830
Epoch Day354.14454386
Epoch Year2025
RAAN223.1748
Inclination97.602
Eccentricity0.0002209
Argument of Perigee83.5795
Mean Anonmoly276.5683
Mean Motion15.05668257
Decay Rate4.943E-05
L11 65386U 25191H 25354.14454386 .00004943 00000+0 34634-3 0 9992
L22 65386 97.6020 223.1748 0002209 83.5795 276.5683 15.05668257 18305



Live tracking and technical data element details for STARLINK-35066 (NORAD 65386). STARLINK-35066 can be tracked NOW for your location showing map with azimuth and elevation plus other details from your city location.







IsCatalogInMostPopularTable: catalog: 65386, numindb: 3
Update: records affected: 1



GetName: 65386 STARLINK-35066

Hit Count: updated at: Sat, 07 Feb 2026 08:44:34 GMT